Cairns, Australia

8:17 PM AEST on May 28, 2017 (GMT +1000)
Cairns International

Weather History for YBCS - November, 2013

Change the Weather History Date:

Wednesday, November 20, 2013

  Actual Average Record
Temperature  
Mean Temperature 80 °F -  
Max Temperature 86 °F 88 °F 93 °F (2001)
Min Temperature 74 °F 73 °F 68 °F (2015)
Cooling Degree Days 15    
Growing Degree Days 30 (Base 50)    
Moisture  
Dew Point 75 °F    
Average Humidity 84    
Maximum Humidity 100    
Minimum Humidity 63    
Precipitation  
Precipitation 0.00 in 0.21 in - ()
Sea Level Pressure  
Sea Level Pressure 29.78 in    
Wind  
Wind Speed 6 mph ()    
Max Wind Speed 15 mph    
Max Gust Speed -    
Visibility 6.5 miles    
Events Rain , Thunderstorm    
Averages and records for this station are not official NWS values.
T = Trace of Precipitation, MM = Missing Value Source: Averaged Metar Reports

Daily Weather History Graph

Daily Weather History Graph

Search for Another Location

Airport or City:

Trip Planner

Search our weather history database for the weather conditions in past years. The results will help you decide how hot, cold, wet, or windy it might be!

Date:

Astronomy

Nov. 20, 2013 Rise Set
Actual Time 5:33 AM AEST 6:31 PM AEST
Civil Twilight 5:10 AM AEST 6:54 PM AEST
Nautical Twilight 4:43 AM AEST 7:22 PM AEST
Astronomical Twilight 4:15 AM AEST 7:50 PM AEST
Moon 8:42 PM AEST (11/20) 7:26 AM AEST (11/20)
Length of Visible Light 13h 43m
Length of Day
12h 57m
Waning Gibbous, 94% of the Moon is Illuminated
Nov 20
Waning Gibbous
Nov 26
Last Quarter
Dec 3
New
Dec 10
First Quarter
Dec 17
Full

Hourly Weather History & Observations

Time (AEST) Temp. Heat Index Dew Point Humidity Pressure Visibility Wind Dir Wind Speed Gust Speed Precip Events Conditions
12:00 AM 79 °F - 75 °F 84% 29.79 in 6 mi South 1.2 mph - -   Overcast
12:00 AM 78.8 °F - 75.2 °F 89% 29.77 in 6.2 mi South 1.2 mph - N/A   Overcast
12:30 AM 78.8 °F - 75.2 °F 89% 29.77 in 3.7 mi WSW 4.6 mph - N/A Rain Rain Showers
12:47 AM 77.0 °F - 75.2 °F 94% 29.77 in 2.5 mi NW 5.8 mph - N/A Rain Heavy Rain Showers
1:00 AM 77 °F - 76 °F 94% 29.79 in - SE 5.8 mph - -  
1:00 AM 77.0 °F - 75.2 °F 94% 29.77 in 3.7 mi SE 5.8 mph - N/A Rain Light Rain Showers
1:12 AM 77.0 °F - 75.2 °F 94% 29.77 in 6.2 mi ESE 3.5 mph - N/A Rain Light Rain Showers
1:30 AM 77.0 °F - 75.2 °F 94% 29.77 in 6.2 mi SW 2.3 mph - N/A   Mostly Cloudy
1:47 AM 77.0 °F - 77.0 °F 100% 29.77 in 6.2 mi NNW 3.5 mph - N/A Rain Light Rain Showers
2:00 AM 77.0 °F - 75.2 °F 94% 29.74 in 6.2 mi WNW 4.6 mph - N/A Rain Light Rain Showers
2:21 AM 77.0 °F - 77.0 °F 100% 29.74 in 6.2 mi West 4.6 mph - N/A Rain , Thunderstorm Light Thunderstorms and Rain
2:30 AM 77.0 °F - 77.0 °F 100% 29.74 in 6.2 mi SSE 3.5 mph - N/A Rain , Thunderstorm Light Thunderstorms and Rain
2:50 AM 77.0 °F - 77.0 °F 100% 29.74 in 3.7 mi ESE 2.3 mph - N/A Rain , Thunderstorm Light Thunderstorms and Rain
3:00 AM 77 °F - 76 °F 95% 29.77 in 2 mi North 5.8 mph - -   Overcast
3:00 AM 77.0 °F - 75.2 °F 94% 29.77 in 1.9 mi North 5.8 mph - N/A Rain , Thunderstorm Thunderstorms and Rain
3:30 AM 75.2 °F - 75.2 °F 100% 29.77 in 1.9 mi West 9.2 mph - N/A Rain Rain Showers
3:51 AM 75.2 °F - 71.6 °F 89% 29.77 in 6.2 mi West 9.2 mph - N/A Rain Light Rain Showers
4:00 AM 75 °F - 72 °F 89% 29.78 in - West 8.1 mph - -  
4:00 AM 75.2 °F - 73.4 °F 94% 29.77 in 6.2 mi West 8.1 mph - N/A   Mostly Cloudy
4:30 AM 75.2 °F - 73.4 °F 94% 29.77 in 6.2 mi SW 3.5 mph - N/A   Mostly Cloudy
5:00 AM 73.4 °F - 73.4 °F 100% 29.77 in 6.2 mi SW 2.3 mph - N/A   Mostly Cloudy
5:30 AM 77.0 °F - 75.2 °F 94% 29.80 in 6.2 mi SSE 9.2 mph - N/A   Partly Cloudy
6:00 AM 75 °F - 72 °F 89% 29.81 in 16 mi WSW 2.3 mph - -   Partly Cloudy
6:00 AM 75.2 °F - 73.4 °F 94% 29.80 in 6.2 mi WSW 2.3 mph - N/A   Mostly Cloudy
6:30 AM 77.0 °F - 73.4 °F 89% 29.80 in 6.2 mi South 5.8 mph - N/A   Mostly Cloudy
7:00 AM 78 °F - 75 °F 87% 29.84 in - SSE 11.5 mph - -  
7:00 AM 77.0 °F - 75.2 °F 94% 29.83 in 6.2 mi SSE 11.5 mph - N/A   Mostly Cloudy
7:30 AM 78.8 °F - 75.2 °F 89% 29.83 in 6.2 mi South 9.2 mph - N/A   Mostly Cloudy
8:00 AM 78.8 °F - 73.4 °F 83% 29.83 in 6.2 mi South 8.1 mph - N/A   Mostly Cloudy
8:30 AM 80.6 °F 86.2 °F 75.2 °F 84% 29.86 in 6.2 mi SSE 10.4 mph - N/A   Mostly Cloudy
9:00 AM 82 °F - 75 °F 73% 29.86 in 19 mi South 5.8 mph - -   Partly Cloudy
9:00 AM 82.4 °F 89.5 °F 75.2 °F 79% 29.86 in 6.2 mi South 5.8 mph - N/A   Mostly Cloudy
9:30 AM 84.2 °F 92.3 °F 75.2 °F 74% 29.83 in 6.2 mi SSE 6.9 mph - N/A   Scattered Clouds
10:00 AM 85 °F - 74 °F 63% 29.86 in - SSE 8.1 mph - -  
10:00 AM 86.0 °F 95.1 °F 75.2 °F 70% 29.83 in 6.2 mi SSE 8.1 mph - N/A   Mostly Cloudy
10:30 AM 86.0 °F 93.4 °F 73.4 °F 66% 29.83 in 6.2 mi East 6.9 mph - N/A   Scattered Clouds
11:00 AM 84.2 °F 92.3 °F 75.2 °F 74% 29.83 in 6.2 mi ENE 12.7 mph - N/A   Partly Cloudy
11:30 AM 86.0 °F 95.1 °F 75.2 °F 70% 29.80 in 6.2 mi ENE 12.7 mph - N/A   Partly Cloudy
12:00 PM 85 °F - 74 °F 63% 29.80 in 19 mi ENE 11.5 mph - -   Partly Cloudy
12:00 PM 86.0 °F 95.1 °F 75.2 °F 70% 29.80 in 6.2 mi ENE 11.5 mph - N/A   Partly Cloudy
12:30 PM 86.0 °F 95.1 °F 75.2 °F 70% 29.77 in 6.2 mi East 10.4 mph - N/A   Scattered Clouds
1:00 PM 85 °F - 75 °F 66% 29.79 in - ESE 8.1 mph - -  
1:00 PM 86.0 °F 95.1 °F 75.2 °F 70% 29.77 in 6.2 mi ESE 8.1 mph - N/A   Scattered Clouds
1:30 PM 84.2 °F 90.9 °F 73.4 °F 70% 29.77 in 6.2 mi SSW 5.8 mph - N/A   Scattered Clouds
2:00 PM 86.0 °F 95.1 °F 75.2 °F 70% 29.74 in 6.2 mi ENE 15.0 mph - N/A   Scattered Clouds
2:30 PM 86.0 °F 95.1 °F 75.2 °F 70% 29.74 in 6.2 mi ENE 15.0 mph - N/A   Scattered Clouds
3:00 PM 82 °F - 75 °F 74% 29.75 in 16 mi ENE 11.5 mph - -   Partly Cloudy
3:00 PM 82.4 °F 89.5 °F 75.2 °F 79% 29.74 in 6.2 mi ENE 11.5 mph - N/A   Scattered Clouds
3:30 PM 82.4 °F 89.5 °F 75.2 °F 79% 29.74 in 6.2 mi ENE 10.4 mph - N/A   Mostly Cloudy
4:00 PM 83 °F - 75 °F 71% 29.75 in - East 8.1 mph - -  
4:00 PM 82.4 °F 89.5 °F 75.2 °F 79% 29.74 in 6.2 mi East 8.1 mph - N/A Rain Light Rain Showers
4:30 PM 82.4 °F 89.5 °F 75.2 °F 79% 29.74 in 6.2 mi SE 5.8 mph - N/A   Mostly Cloudy
5:00 PM 82.4 °F 89.5 °F 75.2 °F 79% 29.74 in 6.2 mi ENE 12.7 mph - N/A   Mostly Cloudy
5:30 PM 82.4 °F 89.5 °F 75.2 °F 79% 29.74 in 6.2 mi ENE 10.4 mph - N/A   Mostly Cloudy
6:00 PM 81 °F - 74 °F 75% 29.76 in - South 8.1 mph - -   Overcast
6:00 PM 80.6 °F 86.2 °F 75.2 °F 84% 29.74 in 6.2 mi South 8.1 mph - N/A   Mostly Cloudy
6:30 PM 80.6 °F 86.2 °F 75.2 °F 84% 29.77 in 6.2 mi South 6.9 mph - N/A   Mostly Cloudy
7:00 PM 80 °F - 75 °F 79% 29.78 in - West 5.8 mph - -  
7:00 PM 80.6 °F 86.2 °F 75.2 °F 84% 29.77 in 6.2 mi West 5.8 mph - N/A   Mostly Cloudy
7:30 PM 80.6 °F 86.2 °F 75.2 °F 84% 29.77 in 6.2 mi WNW 3.5 mph - N/A   Mostly Cloudy
8:00 PM 78.8 °F - 75.2 °F 89% 29.77 in 6.2 mi WNW 5.8 mph - N/A   Mostly Cloudy
8:30 PM 78.8 °F - 75.2 °F 89% 29.77 in 6.2 mi West 4.6 mph - N/A   Mostly Cloudy
9:00 PM 79 °F - 74 °F 81% 29.78 in - West 5.8 mph - -  
9:00 PM 78.8 °F - 75.2 °F 89% 29.77 in 6.2 mi West 5.8 mph - N/A   Mostly Cloudy
9:30 PM 78.8 °F - 75.2 °F 89% 29.77 in 6.2 mi NNW 3.5 mph - N/A   Mostly Cloudy
10:00 PM 79 °F - 75 °F 85% 29.80 in - WNW 4.6 mph - -  
10:00 PM 78.8 °F - 75.2 °F 89% 29.77 in 6.2 mi WNW 4.6 mph - N/A   Mostly Cloudy
10:30 PM 78.8 °F - 75.2 °F 89% 29.80 in 6.2 mi WNW 4.6 mph - N/A   Mostly Cloudy
11:00 PM 78.8 °F - 75.2 °F 89% 29.80 in 6.2 mi West 1.2 mph - N/A   Mostly Cloudy
11:30 PM 78.8 °F - 75.2 °F 89% 29.80 in 6.2 mi West 2.3 mph - N/A   Mostly Cloudy